SCP
2 1 1 1 2 2 2 2 1 2 2 2 2 2 1 1 1 1 1 1 1 1 1 1 0 0 0 0 0 0 0 0 0 0 0 0 0 0 0 0 0 0 0
2 2 2 2 2 2 2 2 2 1 1 1 2 2 2 1 1 1 1 0 1 1 1 1 0 0 0 0 0 0 0 0 0 0 0 0 0 0 0 0 0 0 0
3 3 2 2 2 3 3 2 2 2 1 1 1 2 2 1 1 1 1 1 1 1 1 1 0 0 0 0 0 0 0 0 0 0 0 0 0 0 0 0 0 0 0
3 3 3 3 3 3 3 3 2 2 2 1 1 1 1 1 1 1 1 1 1 1 1 1 0 0 0 0 0 0 0 0 0 0 0 0 0 0 0 0 0 0 0
3 3 3 3 3 3 3 3 3 3 2 2 1 1 1 1 1 1 1 1 1 1 1 1 0 0 0 0 0 0 0 0 0 0 0 0 0 0 0 0 0 0 0
4 4 4 4 4 4 3 3 3 3 2 2 2 2 1 1 1 1 1 1 1 1 1 1 1 0 0 0 0 0 0 0 0 0 0 0 0 0 0 0 0 0 0
5 4 4 4 4 4 4 4 4 3 3 2 2 2 2 2 1 1 1 1 1 1 1 1 1 1 1 0 0 0 0 0 0 0 0 0 0 0 0 0 0 0 0
6 5 4 4 4 4 4 4 4 4 3 3 2 2 2 2 2 1 1 1 1 1 1 1 1 1 1 1 1 0 0 0 0 0 0 0 0 0 0 0 0 0 0
7 5 4 3 4 4 5 4 4 4 3 3 2 2 1 1 1 1 1 1 1 1 1 1 1 1 1 1 1 1 0 0 0 0 0 0 0 0 0 0 0 0 0
9 7 5 4 4 4 4 4 4 4 3 3 2 2 1 1 1 1 1 1 1 1 1 1 1 1 1 1 1 1 1 0 0 0 0 0 0 0 0 0 0 0 0
9 8 6 5 4 4 4 3 3 3 3 2 2 2 1 1 1 1 0 0 0 1 1 1 1 1 1 1 0 1 1 1 0 0 0 0 0 1 0 0 0 0 1
5 5 4 4 3 3 3 3 3 3 3 2 2 2 1 1 1 1 0 0 0 0 0 1 1 1 1 0 0 0 1 0 0 0 0 0 1 1 1 1 1 1 1
2 2 3 3 2 2 2 3 3 3 3 2 2 2 1 1 1 0 0 0 0 0 0 0 0 1 1 0 0 0 0 0 0 0 0 0 1 1 1 1 1 1 1
1 1 2 2 2 2 2 2 3 3 3 2 2 2 2 1 1 0 0 0 0 0 0 0 0 0 0 0 0 0 0 1 0 0 0 0 1 1 1 1 1 1 1
1 1 2 2 2 2 2 2 2 2 2 2 2 2 2 1 1 0 0 0 0 0 0 0 0 0 0 0 0 0 0 1 1 0 0 0 1 1 1 1 1 1 1
1 1 1 2 3 3 2 2 2 1 1 2 2 2 2 1 1 1 0 0 0 0 0 0 0 0 0 0 0 0 0 0 1 0 0 0 1 1 1 1 1 1 1
2 1 1 2 3 3 3 2 2 1 1 1 1 2 2 1 1 1 1 0 0 0 0 0 0 0 0 0 0 0 0 0 0 0 0 0 1 1 1 1 1 1 1
2 2 1 1 2 3 3 3 2 2 1 1 1 1 1 1 1 1 1 1 0 0 0 0 0 0 0 0 0 0 0 0 0 0 0 0 0 0 0 1 1 1 1
3 2 1 1 2 2 3 3 2 2 2 2 2 2 1 1 1 1 1 1 0 0 0 0 0 0 0 0 0 0 0 0 0 0 0 0 0 0 0 0 1 1 1
3 3 2 1 1 2 3 3 2 2 2 2 2 2 2 2 2 1 1 1 1 1 1 0 0 0 0 0 0 0 0 0 0 0 0 0 0 0 0 0 1 1 1
2 3 2 1 1 2 3 3 3 2 2 2 2 2 2 2 2 1 1 1 1 1 1 1 0 0 0 0 0 0 0 0 0 0 0 1 1 0 0 0 0 1 1
2 2 2 1 1 1 2 3 3 3 3 2 2 2 2 2 2 1 1 1 1 1 1 1 0 0 0 0 0 0 0 0 0 0 0 1 1 0 0 0 0 0 0
2 2 2 2 1 1 1 2 2 3 3 3 3 2 2 2 2 2 1 1 1 1 1 1 0 0 0 0 0 0 0 0 0 0 0 0 1 1 1 0 0 0 0
2 2 2 2 1 1 0 1 1 2 2 3 3 3 2 2 2 2 2 2 1 1 1 1 0 0 0 0 0 0 0 0 0 0 0 0 1 1 1 1 0 0 0
2 2 2 2 1 1 0 0 1 1 1 2 2 2 2 2 2 2 2 2 2 1 1 1 1 0 0 0 0 0 0 0 0 0 0 0 1 1 1 1 1 0 0
2 2 2 2 2 1 1 0 0 0 1 1 2 2 2 2 2 2 2 2 2 1 1 1 1 0 0 0 0 0 0 0 1 0 0 0 0 1 1 1 1 1 0
Wind_Speed
1 2 7 8 9 10 11 11 11 12 12 12 12 12 12 12 12 12 12 11 11 11 12 12 12 12 13 13 13 13 13 13 13 13 13 13 13 13 13 12 11 8 13
4 4 8 9 9 10 11 11 11 11 11 11 11 11 11 11 11 11 11 11 11 11 11 12 12 12 12 12 12 12 12 12 12 12 12 11 12 12 12 12 11 8 12
5 5 7 9 10 10 11 11 10 11 10 10 11 11 11 10 10 10 10 11 11 11 11 11 11 11 11 11 11 11 11 11 11 11 10 5 6 11 11 11 11 11 11
5 5 6 10 10 10 11 10 10 10 10 10 10 10 10 10 10 10 10 10 10 10 10 10 10 9 9 9 9 10 10 9 9 8 4 3 4 9 10 10 10 9 10
6 4 6 10 10 10 10 10 10 10 10 10 10 9 9 9 9 9 9 9 9 9 9 9 8 8 8 8 8 8 9 9 8 5 3 3 3 7 9 8 8 8 8
6 5 6 10 9 9 10 10 9 9 9 9 9 8 8 8 8 8 8 8 8 7 7 7 7 7 7 7 7 7 7 7 6 3 2 2 2 6 7 7 6 6 6
6 5 6 9 9 9 9 10 9 9 9 9 9 8 8 8 7 7 7 7 7 7 6 6 6 6 5 5 6 6 6 6 4 2 2 1 2 5 6 5 5 5 5
7 5 6 9 9 9 9 9 9 9 9 9 9 8 8 8 8 7 7 6 6 6 6 5 4 4 4 4 4 4 4 4 3 2 1 0 2 4 4 4 4 4 4
6 5 5 5 6 8 8 8 8 8 8 9 8 8 8 8 7 7 7 6 6 5 5 4 4 3 3 3 3 4 4 3 2 1 1 0 2 3 3 3 3 3 3
5 5 5 4 4 4 5 7 8 8 8 8 8 7 7 7 7 7 6 6 6 5 5 4 3 3 3 2 2 2 3 2 1 1 1 1 1 2 2 2 2 2 2
5 4 4 4 4 4 4 5 6 7 7 7 6 7 6 3 3 4 4 5 5 5 4 4 4 3 3 3 2 2 1 1 0 0 1 1 1 2 2 2 2 2 2
4 3 3 4 4 4 3 3 2 3 3 3 3 3 3 3 3 3 4 5 5 4 4 4 4 4 3 2 2 2 0 0 0 0 1 1 1 2 2 2 2 2 2
4 3 3 3 4 3 3 3 2 2 2 2 2 2 2 2 2 2 1 2 2 3 2 3 3 2 2 1 1 1 0 0 0 1 1 1 1 2 2 2 3 3 2
4 3 3 3 3 3 3 2 2 2 1 1 1 2 2 2 2 1 1 1 1 1 1 2 1 2 2 2 1 1 0 0 1 1 1 1 2 3 3 3 3 4 3
4 3 3 4 4 3 3 2 2 1 1 1 1 1 2 2 1 1 1 1 1 1 1 1 1 2 2 2 1 1 1 1 1 1 1 2 2 3 4 4 4 4 4
4 3 3 4 3 3 3 2 2 2 1 1 1 1 2 1 1 1 1 1 1 1 1 1 1 1 1 1 2 2 1 1 1 1 1 1 3 3 4 4 4 4 4
4 3 3 4 3 4 3 3 2 2 2 1 1 1 1 1 1 1 0 0 1 1 1 1 1 1 1 2 2 2 2 1 1 2 1 1 2 3 4 4 4 4 5
4 3 3 3 3 3 3 3 2 2 2 1 1 1 1 1 1 1 1 0 1 1 1 1 1 1 2 2 2 2 2 2 2 2 1 1 1 1 3 4 4 5 5
4 4 3 3 3 3 3 2 2 2 2 1 1 0 0 1 1 1 0 0 0 1 1 1 1 1 1 2 2 2 2 2 2 2 1 1 1 1 2 3 4 5 6
4 4 3 3 3 3 2 2 2 2 1 1 1 0 0 0 1 1 0 0 1 1 1 1 1 1 1 2 2 3 3 2 2 1 2 1 1 2 2 2 2 4 5
4 4 4 3 2 2 2 2 2 1 1 0 0 1 1 0 0 1 0 0 0 0 1 0 0 1 2 1 1 2 3 2 2 2 1 1 2 2 2 2 2 2 2
4 3 3 3 2 2 2 1 1 1 1 1 0 1 1 1 0 0 1 0 0 0 1 1 1 0 1 1 0 1 3 4 2 2 1 2 2 2 2 2 2 2 2
4 3 3 3 3 2 2 2 2 2 1 1 1 1 1 1 1 0 0 1 1 1 1 1 1 1 1 2 1 1 1 2 3 3 2 2 2 2 2 2 2 2 2
4 3 3 3 2 2 2 3 3 2 1 1 1 1 1 1 1 1 0 0 0 0 1 1 1 1 1 2 2 1 2 2 1 3 3 2 2 2 2 2 2 2 2
4 3 3 3 3 2 2 2 2 1 1 0 0 1 1 1 2 1 1 0 1 1 1 1 1 1 1 2 2 1 2 1 2 2 4 3 3 2 2 2 2 2 2
4 3 3 3 2 2 2 2 2 2 1 1 0 0 1 1 1 2 1 1 1 1 1 1 1 2 2 2 2 2 2 2 2 2 3 3 3 3 3 2 2 2 2
Wind_Direction
164 180 134 124 114 107 104 102 98 96 94 94 94 95 96 96 95 94 92 89 85 82 81 79 81 80 78 79 80 80 80 79 78 77 77 77 78 79 77 75 71 66 70
157 164 137 126 118 111 107 104 99 97 95 95 95 96 96 97 96 95 94 93 89 85 83 80 80 80 77 78 80 81 82 82 81 79 75 74 77 80 80 77 76 74 73
131 145 141 126 119 115 112 107 103 99 97 96 95 96 96 96 96 94 94 92 91 88 85 84 82 80 78 77 78 81 81 84 83 84 78 64 75 82 81 78 77 78 77
121 129 136 126 120 117 115 112 106 102 99 98 97 96 96 96 96 94 93 93 92 92 90 89 86 83 81 80 81 81 78 76 83 86 69 62 73 86 84 80 79 81 80
99 101 125 123 120 118 114 112 109 105 101 98 98 97 95 95 96 93 91 92 93 93 93 91 89 88 85 82 82 81 76 71 75 75 65 65 71 89 87 85 81 81 82
99 94 107 111 115 115 111 109 109 107 103 99 97 98 96 95 96 93 91 87 89 93 95 95 94 92 87 83 83 82 74 71 65 54 56 69 83 95 93 89 87 83 86
109 102 109 106 106 107 108 106 105 105 103 100 97 95 93 92 93 91 89 87 86 87 92 96 97 95 89 87 85 83 76 70 65 57 55 69 109 108 105 101 95 94 93
115 106 108 106 103 101 103 103 102 102 100 99 96 93 90 87 86 85 83 83 84 83 83 84 89 89 85 85 83 81 77 70 65 62 41 60 127 123 116 115 109 109 107
107 104 100 107 105 100 97 94 93 93 94 94 91 88 85 83 83 83 78 76 74 73 73 72 70 72 69 69 74 71 66 71 66 44 17 309 144 140 132 125 121 119 119
95 98 100 98 100 101 100 90 88 85 83 83 84 80 77 75 75 75 69 68 69 67 63 58 50 46 45 43 48 64 68 64 58 21 313 273 184 165 160 157 154 149 142
100 100 106 105 100 102 106 99 92 87 83 78 75 73 71 62 62 65 61 61 61 58 53 43 26 17 15 13 15 37 46 56 63 324 274 251 232 206 197 191 185 185 176
123 119 115 114 111 108 111 102 95 88 86 79 69 71 70 64 57 55 54 52 46 38 32 24 11 8 5 352 352 357 16 75 53 283 269 262 241 231 228 223 222 222 211
144 128 120 119 118 113 106 109 101 94 94 88 81 78 72 67 56 45 40 33 28 23 11 3 1 354 348 343 341 340 246 67 288 274 276 269 260 257 245 240 239 240 235
136 135 130 125 120 116 113 115 114 105 104 94 92 92 87 77 58 40 36 18 18 359 352 353 342 336 341 349 360 0 330 240 244 259 263 275 269 256 253 254 248 242 239
139 142 146 135 128 127 120 119 111 117 118 117 105 104 101 100 89 56 25 16 357 345 333 329 337 339 342 343 347 344 309 276 243 243 278 282 279 271 264 265 258 249 241
151 152 150 140 136 131 125 127 131 126 118 105 105 98 102 107 110 100 40 1 336 319 303 302 315 327 325 329 326 315 287 276 260 255 247 269 276 274 268 269 270 266 256
161 153 146 146 135 134 135 139 131 131 118 107 113 116 107 104 123 129 117 347 323 331 339 343 354 354 342 338 324 309 291 272 253 251 252 259 280 288 283 273 271 267 259
145 142 141 134 132 133 136 138 133 124 119 116 108 117 119 115 121 124 122 288 331 2 4 352 352 354 338 333 315 301 294 284 262 250 250 259 267 283 289 287 278 273 265
140 139 130 124 134 138 134 131 123 116 108 114 97 98 136 115 109 125 160 279 4 29 10 347 347 324 313 319 302 295 291 280 268 263 255 253 255 261 268 291 290 283 278
128 124 119 114 118 134 133 119 112 99 93 90 97 54 126 149 146 154 151 357 28 34 1 359 342 330 291 300 306 309 297 288 274 257 250 258 262 264 268 279 279 284 282
117 118 120 116 117 127 132 136 141 149 150 113 81 39 11 360 177 171 141 109 36 333 292 304 304 326 328 341 352 326 315 301 287 273 262 257 268 265 265 265 264 270 279
143 137 133 132 134 142 150 155 160 164 177 195 174 27 15 357 305 192 153 195 221 263 335 338 4 335 316 347 43 348 327 326 320 296 281 261 269 282 284 288 279 268 261
156 157 151 144 136 136 133 119 97 78 58 35 2 336 345 345 333 315 191 195 225 206 232 264 251 257 271 295 276 182 197 265 304 302 285 288 297 297 287 287 287 279 272
174 159 146 140 122 108 114 131 139 144 177 223 243 263 328 354 336 340 52 92 303 262 258 262 245 243 231 257 280 268 234 208 241 299 305 307 311 290 289 302 296 284 278
160 151 143 133 121 110 104 125 137 146 191 214 319 349 334 354 352 349 347 36 346 302 283 292 282 263 238 239 245 271 281 270 236 239 284 306 317 297 292 286 279 284 292
145 142 139 136 129 125 115 113 128 148 158 138 142 289 311 331 346 344 345 350 325 303 287 277 271 269 256 254 255 250 252 252 247 243 262 284 291 292 298 286 276 280 291